Home   Weather   Port Sudan   Past weeks

Flag for Sudan Past Weather in Port Sudan, Sudan — Yesterday and Last 2 Weeks

Now
79 °F

Clear.


Feels Like: 81 °F
Forecast: 74 / 85 °F
Wind: 7 mph from North

Location: Jeddah King Abdul Aziz International Airport

Current Time: Dec 4, 2016 at 11:37:24 pm

Latest Report: Dec 4, 2016 at 11:00 pm


Visibility: 10 mi

Pressure: 30.01 "Hg

Humidity: 70%

Dew Point: 68 °F

Location of Port SudanLocation

Past Weather in Port Sudan — Graph

°F

Port Sudan Temperature Yesterday

Maximum temperature yesterday: 86 °F (at 2:00 pm)
Minimum temperature yesterday: 73 °F (at 7:00 am)
Average temperature yesterday: 79 °F

High & Low Weather Summary for the Past Weeks

 TemperatureHumidityPressure
High95 °F (Nov 22, 1:00 pm)83% (Nov 23, 7:00 am)30.04 "Hg (Nov 23, 7:00 am)
Low72 °F (Nov 26, 7:00 am)15% (Nov 26, 2:00 pm)29.71 "Hg (Nov 24, 3:00 pm)
Average82 °F55%29.87 "Hg
* Reported Nov 19 10:00 pm — Dec 4 10:00 pm, Port Sudan, Weather by CustomWeather, © 2016

Note: Actual official high and low records may vary slightly from our data, if they occured in-between our weather recording intervals... More about our weather records

Advertising

Port Sudan Weather History for the Previous 24 Hours

Scroll right to see more
 ConditionsComfort  
Time TempWeatherWind HumidityBarometerVisibility
10:00 pm
Sun, Dec 4
79 °FClear.6 mph74%30.01 "Hg10 mi
9:00 pm81 °FClear.7 mph70%30.01 "Hg10 mi
8:00 pm81 °FClear.7 mph70%30.01 "Hg10 mi
7:00 pm82 °FClear.7 mph66%29.98 "Hg10 mi
6:00 pm82 °FClear.7 mph66%29.98 "Hg10 mi
5:00 pm84 °FSunny.8 mph58%29.95 "Hg10 mi
4:00 pm84 °FSunny.6 mph58%29.95 "Hg10 mi
3:00 pm86 °FSunny.7 mph52%29.98 "Hg10 mi
2:00 pm86 °FSunny.9 mph52%29.98 "Hg10 mi
1:00 pm86 °FSunny.9 mph52%29.98 "Hg10 mi
12:00 pm86 °FSunny.No wind52%30.01 "Hg10 mi
11:00 am84 °FSunny.7 mph55%30.04 "Hg10 mi
10:00 am82 °FSunny.No wind58%30.04 "Hg10 mi
9:00 am79 °FSunny.7 mph65%30.04 "Hg10 mi
8:00 am75 °FSunny.No wind74%30.01 "Hg10 mi
7:00 am73 °FSunny.No wind74%30.01 "Hg10 mi
6:00 am73 °FClear.No wind74%29.98 "Hg10 mi
5:00 am73 °FClear.2 mph74%29.98 "Hg10 mi
4:00 am77 °FClear.5 mph65%29.98 "Hg10 mi
3:00 am77 °FClear.5 mph65%29.98 "Hg10 mi
2:00 am75 °FClear.2 mph69%29.98 "Hg10 mi
1:00 am77 °FClear.5 mph65%29.98 "Hg10 mi
12:00 am77 °FClear.5 mph65%30.01 "Hg10 mi
11:00 pm
Sat, Dec 3
77 °FClear.5 mph65%30.01 "Hg10 mi
Weather by CustomWeather, © 2016

See weather overviewHow to use our weather pages